Elizabeth City, NC

6:37 AM EDT on May 28, 2017 (GMT -0400)
Elizabeth City Cgas-Regional

Weather History for KECG - April, 2013

Change the Weather History Date:

Friday, April 12, 2013

  Actual Average Record
Temperature  
Mean Temperature 74 °F 58 °F  
Max Temperature 80 °F 69 °F 89 °F (1981)
Min Temperature 68 °F 47 °F 30 °F (1973)
Degree Days  
Heating Degree Days 0 8  
Month to date heating degree days 99 112  
Since 1 July heating degree days 2699 3049  
Cooling Degree Days 9 1  
Month to date cooling degree days 34 12  
Year to date cooling degree days 39 19  
Growing Degree Days 23 (Base 50)    
Moisture  
Dew Point 67 °F    
Average Humidity 84    
Maximum Humidity 97    
Minimum Humidity 71    
Precipitation  
Precipitation 0.35 in 0.12 in 1.59 in (1944)
Month to date precipitation 0.79 1.37  
Year to date precipitation 7.60 11.79  
Snow  
Snow 0.00 in - 0.00 in (2002)
Month to date snowfall 0.0  
Since 1 July snowfall T  
Snow Depth 0.00 in    
Sea Level Pressure  
Sea Level Pressure 29.76 in    
Wind  
Wind Speed 13 mph (South)    
Max Wind Speed 22 mph    
Max Gust Speed 32 mph    
Visibility 9 miles    
Events Rain    
T = Trace of Precipitation, MM = Missing Value Source: NWS Daily Summary

Daily Weather History Graph

Daily Weather History Graph

Search for Another Location

Airport or City:

Trip Planner

Search our weather history database for the weather conditions in past years. The results will help you decide how hot, cold, wet, or windy it might be!

Date:

Astronomy

Apr. 12, 2013 Rise Set
Actual Time 6:35 AM EDT 7:36 PM EDT
Civil Twilight 6:08 AM EDT 8:02 PM EDT
Nautical Twilight 5:37 AM EDT 8:34 PM EDT
Astronomical Twilight 5:05 AM EDT 9:06 PM EDT
Moon 7:47 AM EDT (4/12) 10:00 PM EDT (4/12)
Length of Visible Light 13h 53m
Length of Day
13h 01m
Waxing Crescent, 5% of the Moon is Illuminated
Apr 12
Waxing Crescent
Apr 18
First Quarter
Apr 25
Full
May 2
Last Quarter
May 9
New

Hourly Weather History & Observations

Time (EDT) Temp. Dew Point Humidity Pressure Visibility Wind Dir Wind Speed Gust Speed Precip Events Conditions
12:54 AM 70.0 °F 64.0 °F 81% 29.86 in 10.0 mi SSW 12.7 mph - N/A   Clear
1:54 AM 69.1 °F 64.9 °F 87% 29.87 in 10.0 mi South 10.4 mph - N/A   Clear
2:54 AM 68.0 °F 64.9 °F 90% 29.85 in 10.0 mi South 10.4 mph - N/A   Mostly Cloudy
3:52 AM 69.8 °F 66.2 °F 88% 29.83 in 10.0 mi South 9.2 mph - N/A   Overcast
3:54 AM 69.1 °F 66.0 °F 90% 29.83 in 10.0 mi South 11.5 mph - N/A   Overcast
4:04 AM 69.8 °F 66.2 °F 88% 29.83 in 10.0 mi South 9.2 mph 18.4 mph N/A   Overcast
4:41 AM 69.8 °F 64.4 °F 83% 29.82 in 10.0 mi South 15.0 mph 20.7 mph N/A   Mostly Cloudy
4:54 AM 69.1 °F 64.9 °F 87% 29.82 in 10.0 mi South 11.5 mph 19.6 mph N/A   Mostly Cloudy
5:14 AM 69.8 °F 64.4 °F 83% 29.82 in 10.0 mi South 12.7 mph - N/A   Scattered Clouds
5:38 AM 69.8 °F 64.4 °F 83% 29.82 in 10.0 mi South 15.0 mph 23.0 mph N/A   Mostly Cloudy
5:54 AM 69.1 °F 64.9 °F 87% 29.82 in 10.0 mi South 15.0 mph 20.7 mph N/A   Overcast
6:31 AM 69.8 °F 64.4 °F 83% 29.81 in 10.0 mi South 15.0 mph 23.0 mph N/A   Scattered Clouds
6:54 AM 69.1 °F 64.9 °F 87% 29.82 in 10.0 mi South 15.0 mph 24.2 mph N/A   Mostly Cloudy
7:25 AM 69.8 °F 64.4 °F 83% 29.82 in 10.0 mi South 19.6 mph 26.5 mph N/A   Mostly Cloudy
7:54 AM 70.0 °F 64.9 °F 84% 29.82 in 10.0 mi South 13.8 mph 20.7 mph N/A   Mostly Cloudy
8:54 AM 70.0 °F 64.9 °F 84% 29.81 in 10.0 mi South 15.0 mph 24.2 mph 0.00 in Rain Light Rain
9:54 AM 70.0 °F 64.9 °F 84% 29.83 in 10.0 mi SSW 13.8 mph 21.9 mph 0.00 in Rain Light Rain
10:54 AM 69.1 °F 66.0 °F 90% 29.81 in 8.0 mi South 10.4 mph - 0.06 in Rain Light Rain
11:54 AM 71.1 °F 66.9 °F 87% 29.80 in 10.0 mi South 12.7 mph - 0.00 in   Scattered Clouds
12:54 PM 75.0 °F 68.0 °F 79% 29.76 in 10.0 mi South 16.1 mph 26.5 mph 0.00 in   Mostly Cloudy
1:24 PM 75.2 °F 69.8 °F 83% 29.76 in 10.0 mi South 20.7 mph 27.6 mph N/A   Overcast
1:46 PM 75.2 °F 68.0 °F 78% 29.74 in 10.0 mi South 18.4 mph 26.5 mph N/A   Mostly Cloudy
1:54 PM 78.1 °F 69.1 °F 74% 29.73 in 10.0 mi South 16.1 mph 25.3 mph N/A   Scattered Clouds
2:54 PM 78.1 °F 68.0 °F 71% 29.71 in 10.0 mi SSW 18.4 mph 28.8 mph N/A   Partly Cloudy
3:54 PM 75.9 °F 66.0 °F 71% 29.69 in 10.0 mi South 13.8 mph - N/A   Overcast
4:54 PM 73.9 °F 68.0 °F 82% 29.67 in 10.0 mi South 11.5 mph - 0.00 in Rain Light Rain
5:20 PM 73.4 °F 68.0 °F 83% 29.67 in 1.8 mi South 8.1 mph - 0.15 in Rain Heavy Rain
5:30 PM 71.6 °F 69.8 °F 94% 29.69 in 3.0 mi SW 11.5 mph - 0.18 in Rain Rain
5:35 PM 71.6 °F 69.8 °F 94% 29.68 in 1.8 mi South 9.2 mph - 0.23 in Rain Rain
5:45 PM 71.6 °F 69.8 °F 94% 29.68 in 4.0 mi South 8.1 mph - 0.24 in Rain Light Rain
5:54 PM 71.1 °F 69.1 °F 93% 29.68 in 6.0 mi South 9.2 mph - 0.26 in Rain Light Rain
6:54 PM 71.1 °F 68.0 °F 90% 29.68 in 10.0 mi South 10.4 mph - 0.02 in   Scattered Clouds
7:54 PM 70.0 °F 68.0 °F 93% 29.66 in 10.0 mi South 9.2 mph - 0.01 in   Mostly Cloudy
8:54 PM 69.1 °F 66.9 °F 93% 29.65 in 10.0 mi South 13.8 mph - 0.00 in   Clear
9:54 PM 70.0 °F 66.9 °F 90% 29.67 in 10.0 mi SSW 15.0 mph - N/A   Clear
10:54 PM 70.0 °F 66.9 °F 90% 29.67 in 10.0 mi SSW 18.4 mph 24.2 mph N/A   Clear
11:54 PM 69.1 °F 66.9 °F 93% 29.68 in 9.0 mi SSW 15.0 mph - N/A   Clear